Wind_Speed
30 30 30 30 31 31 33 37 46 59 72 87 102 111 112 111 107 104 102 101 100 101 102 101 100 100 100 102 104 106 106 104 103 101 99 96 95 95 94 92 90 90 90 88 88 87 87 87 86 86 85 84 83 83 81 75 71 72 72 69 67 70 75 78 79 79 80 80 80 80 82 84 84 84
28 28 29 29 29 30 30 31 35 45 58 71 85 99 110 115 113 109 106 103 101 102 103 102 102 101 100 99 100 102 104 103 101 101 100 99 98 97 96 95 92 90 90 89 88 88 87 87 86 85 85 84 84 84 83 80 74 71 72 70 66 66 70 75 76 76 76 78 78 78 79 80 81 82
27 27 27 28 28 29 29 29 29 34 44 56 69 83 97 109 115 115 111 107 103 103 103 103 103 101 100 100 99 99 101 101 100 99 99 100 99 99 98 97 96 93 92 90 89 89 88 88 87 86 85 84 84 84 84 83 79 73 71 72 71 68 68 71 75 74 72 71 73 75 76 77 78 79
25 25 26 27 28 28 28 27 27 28 33 43 55 68 82 95 107 116 117 112 107 105 105 104 103 102 101 101 100 99 100 101 101 100 99 99 99 99 99 98 98 97 95 93 91 90 90 89 88 87 87 86 85 84 84 83 82 77 72 72 74 72 70 70 72 72 71 67 66 71 74 73 73 74
24 24 25 26 27 26 26 26 25 25 27 33 43 54 67 80 93 106 115 117 113 109 106 105 104 103 102 102 101 100 99 100 101 101 100 99 98 99 99 99 98 98 97 96 94 93 91 91 91 89 88 87 86 85 84 84 84 82 77 74 74 74 74 73 70 70 70 67 66 69 72 72 71 69
23 22 23 24 25 24 23 24 25 24 24 26 32 42 53 66 79 92 104 113 116 115 110 107 105 104 103 103 102 101 100 100 100 101 100 99 98 98 98 99 99 98 97 97 96 95 94 93 92 91 90 89 88 87 85 85 85 85 83 79 76 75 76 76 74 71 71 70 68 68 68 68 69 67
22 21 22 22 23 23 22 23 24 24 23 23 25 32 42 52 64 78 90 101 110 115 115 111 108 106 105 104 103 103 101 100 100 100 100 100 99 98 98 98 98 98 98 98 97 96 96 94 93 93 92 91 90 89 88 86 85 85 85 84 81 78 77 77 76 74 73 73 71 69 66 65 67 67
21 20 21 21 21 21 21 22 22 22 22 21 21 23 31 41 51 63 76 88 99 107 113 115 112 109 107 106 104 103 103 101 100 99 99 100 100 99 99 98 98 98 99 98 98 97 97 96 95 94 93 93 92 91 90 88 87 86 85 85 85 83 80 79 78 76 74 75 74 71 69 67 67 68
20 19 19 19 19 19 20 20 20 20 20 20 19 19 22 30 40 50 62 75 87 96 104 111 114 114 111 108 106 104 103 102 101 100 99 99 99 99 100 99 99 98 99 99 99 98 97 97 96 95 95 94 94 93 92 90 89 88 87 86 86 85 84 83 82 80 78 76 75 74 73 72 70 68
20 18 17 17 17 17 17 18 19 19 19 18 18 18 18 21 28 38 49 60 73 84 93 101 109 114 114 111 108 106 105 103 102 101 100 99 98 99 99 100 100 99 99 99 99 99 98 98 97 97 96 95 95 94 94 93 91 90 89 88 87 86 85 85 85 85 83 80 79 77 75 74 73 71
19 18 17 15 15 15 15 16 17 17 17 17 17 17 17 17 19 26 37 48 59 71 82 91 99 106 112 114 111 109 108 106 104 102 101 100 100 99 99 100 100 101 100 99 99 99 99 99 98 98 98 97 96 95 95 95 94 92 91 89 89 88 86 86 86 86 86 84 83 82 80 76 74 73
18 18 17 16 15 14 13 14 14 14 14 15 16 16 15 15 15 18 24 35 47 58 69 80 89 96 104 111 114 113 110 108 105 104 104 103 102 101 100 99 99 100 101 100 99 99 99 100 100 100 99 98 98 97 96 96 95 94 93 92 91 90 89 88 87 86 86 86 85 84 84 82 79 76
17 17 17 16 15 14 13 13 13 13 12 12 13 13 13 13 13 14 17 23 33 45 56 67 78 86 94 102 110 114 113 111 109 108 107 104 102 102 101 100 99 99 100 100 100 100 100 100 101 101 101 100 99 98 97 97 96 96 95 95 93 92 91 90 89 88 87 87 86 85 85 86 86 83
17 15 15 15 14 13 13 12 12 11 11 10 11 11 11 11 11 12 14 16 21 31 43 55 66 76 84 91 99 107 113 114 113 111 109 106 104 104 102 101 100 99 99 100 101 101 101 102 101 101 101 100 100 100 99 98 97 97 97 97 96 95 94 92 91 90 89 88 87 87 86 87 88 88
16 15 14 13 12 11 11 11 11 11 10 9 9 9 10 10 10 10 11 13 14 19 29 41 53 64 74 83 90 97 105 112 114 114 112 109 107 105 104 102 101 100 100 100 101 102 102 102 102 101 101 101 101 101 100 99 99 99 99 99 98 98 96 95 94 92 91 90 89 89 89 89 89 89
16 15 14 13 12 11 11 11 11 11 11 10 9 8 9 9 9 9 9 10 11 13 18 27 38 51 63 73 81 87 94 102 110 114 114 112 109 107 106 104 103 103 103 103 102 102 102 102 102 101 100 100 101 101 101 101 101 101 101 100 100 100 99 98 97 96 94 93 92 91 90 90 90 89
15 16 15 15 14 14 14 14 14 13 12 11 11 10 9 8 8 8 8 8 9 10 11 16 24 35 48 60 71 79 85 91 98 106 111 113 112 110 108 106 105 106 106 105 103 102 101 102 102 102 101 100 101 101 101 102 103 103 103 102 102 102 101 101 100 99 98 97 95 94 93 92 91 91
15 16 17 17 17 17 18 18 18 17 15 14 12 11 10 9 8 8 7 7 8 9 9 9 13 20 31 43 55 67 76 82 88 94 101 108 113 114 112 110 108 108 108 107 106 104 103 102 102 101 101 101 101 102 102 103 104 104 104 104 104 103 103 103 103 102 101 100 99 97 96 95 94 93
16 16 18 19 19 20 20 20 21 20 19 16 14 13 12 11 11 10 8 7 7 8 8 7 7 9 15 24 36 48 60 70 79 85 91 98 105 111 114 114 111 109 109 109 109 108 105 104 103 101 101 102 103 103 103 104 105 105 105 105 105 105 105 105 105 104 103 103 102 101 99 98 97 96
19 19 20 20 21 21 20 20 21 21 20 18 16 15 14 13 12 11 10 8 7 8 9 8 6 5 5 9 17 28 40 52 63 73 81 87 94 100 107 111 112 112 113 113 112 111 108 107 105 103 103 104 104 104 104 105 106 106 106 107 107 107 107 107 107 106 106 105 104 103 103 101 100 99
21 21 21 21 20 19 19 19 19 20 20 19 17 15 15 14 13 12 11 10 9 9 10 10 8 6 5 4 6 12 21 31 43 55 66 75 83 89 95 101 107 111 114 115 115 114 111 110 109 107 106 106 105 105 105 106 107 108 108 108 108 108 109 109 109 109 108 108 107 106 105 104 103 103
21 21 20 19 18 17 17 17 18 18 19 19 17 15 15 15 13 12 11 11 10 11 12 12 11 9 8 7 6 6 10 15 23 33 45 58 69 78 84 89 96 103 108 112 115 115 113 113 113 111 110 109 107 106 106 107 108 109 109 110 110 110 110 110 110 110 110 110 109 108 107 106 106 105
19 19 18 17 16 15 15 16 16 17 18 18 17 15 16 15 11 9 10 11 11 11 12 14 14 13 12 11 10 9 10 11 12 17 25 36 48 59 69 77 85 92 97 103 108 111 113 114 115 115 114 113 111 109 109 108 109 109 110 110 111 111 112 112 112 112 112 112 111 110 110 109 108 108
16 17 17 16 15 15 14 13 14 15 17 17 17 15 16 15 10 7 9 11 11 12 13 14 15 16 15 14 14 13 13 14 14 15 17 22 29 38 50 61 70 78 85 91 97 102 106 111 114 116 116 116 114 114 112 111 110 110 110 111 111 112 113 113 114 114 114 113 113 112 112 111 110 110
15 15 16 15 14 15 15 13 12 13 15 17 17 17 16 15 12 8 9 11 11 12 13 14 15 16 17 17 17 17 17 18 19 19 20 21 22 25 32 41 51 61 69 77 85 91 98 103 107 111 114 115 115 116 116 115 114 113 112 111 111 112 113 114 114 115 115 115 114 114 113 113 112 112
15 15 15 15 15 14 14 14 12 12 13 15 17 18 17 16 14 11 10 11 11 12 13 14 15 16 17 18 18 19 20 22 23 23 24 25 25 24 25 28 33 42 52 61 70 78 86 92 97 102 107 110 112 114 116 117 117 116 116 114 113 113 113 114 114 114 115 115 115 115 115 115 114 114
15 15 14 15 15 15 14 14 13 12 12 13 16 18 18 18 16 14 12 12 12 13 13 14 15 17 18 19 20 21 22 24 26 27 27 28 29 28 27 26 26 29 36 45 53 62 70 77 84 90 95 101 105 108 111 114 116 118 118 118 117 116 116 115 115 115 115 115 116 116 116 116 116 115
17 16 15 15 16 16 16 15 15 14 13 14 16 18 18 19 18 17 16 15 14 14 14 15 17 18 19 20 22 23 25 27 28 29 30 30 30 30 29 28 27 26 28 32 38 45 52 59 66 73 80 86 93 97 101 105 109 113 116 118 119 119 119 118 117 117 116 116 116 116 116 116 116 116
20 18 17 16 16 16 17 18 18 17 16 15 16 18 18 19 19 19 19 18 17 16 16 17 18 19 21 22 23 25 27 28 29 30 31 31 32 31 30 29 29 28 28 27 28 32 37 43 49 56 63 69 76 82 87 92 96 101 106 110 114 117 120 120 120 120 120 119 118 117 117 116 116 116
22 21 20 18 17 17 17 19 20 20 19 18 18 18 19 19 19 20 20 20 19 19 19 19 19 21 22 24 25 27 28 29 29 30 32 32 33 32 31 31 30 29 29 28 27 27 28 32 37 43 48 54 60 66 72 76 80 85 91 96 101 107 112 116 118 121 122 122 122 121 119 118 117 116
24 24 23 22 20 19 19 19 20 21 22 21 20 20 20 20 20 20 21 21 21 21 21 21 21 23 24 26 27 28 29 29 30 32 33 34 33 33 33 32 30 30 30 29 27 26 26 27 30 34 38 43 47 52 57 62 66 70 75 80 86 91 97 103 108 113 117 121 123 124 123 121 119 118
26 26 25 25 23 22 22 22 22 23 23 23 22 21 21 21 21 21 21 22 21 21 21 22 22 24 26 27 28 29 31 31 31 33 35 35 35 35 34 32 31 30 30 30 28 28 27 27 28 30 32 36 39 43 46 50 53 57 61 66 70 75 80 86 91 97 104 110 115 120 122 123 122 121
29 28 27 27 26 25 24 24 24 24 25 25 24 23 22 21 21 22 22 22 22 22 22 23 24 25 27 29 29 30 31 32 33 34 35 36 37 37 34 33 31 30 30 30 30 30 29 28 28 29 31 33 36 39 41 43 45 47 50 53 56 60 65 69 74 80 87 93 100 106 112 117 120 121
32 31 30 29 28 27 26 26 26 26 26 26 26 24 23 23 22 22 22 22 23 23 23 23 24 26 28 30 31 31 31 31 32 33 33 34 36 37 35 33 31 30 30 30 30 31 30 29 29 30 32 32 34 36 38 40 41 42 44 45 47 49 51 55 58 63 68 74 81 88 95 101 107 112
36 34 33 31 30 29 28 28 27 27 27 28 27 26 25 24 23 22 22 23 23 23 23 24 25 27 29 31 32 32 30 28 29 30 30 31 33 34 33 33 31 30 29 29 29 30 31 30 31 31 31 31 32 34 36 38 40 41 41 42 42 42 43 43 45 48 51 56 62 69 75 82 89 95
38 37 35 33 32 30 30 29 28 28 28 28 28 27 26 25 23 22 22 23 23 23 23 24 25 26 29 31 32 31 28 25 24 25 26 27 28 29 32 32 30 28 27 27 28 29 30 30 31 30 30 29 30 32 35 38 40 42 42 42 40 39 38 36 35 36 37 40 44 50 56 62 68 74
40 38 36 35 34 32 31 30 29 28 28 28 28 27 27 25 24 22 22 23 24 24 23 23 24 26 28 30 30 27 23 20 19 19 21 23 24 27 30 31 29 26 25 25 26 27 27 28 29 29 29 29 29 31 33 36 38 40 42 43 41 38 36 33 30 29 30 30 32 35 40 44 49 55
40 38 37 36 35 33 32 31 30 29 28 27 27 27 27 26 24 23 22 22 23 24 23 23 23 25 27 28 26 21 17 14 14 15 17 19 23 26 29 28 26 24 23 23 24 25 26 27 27 28 28 29 29 31 34 35 35 36 39 42 42 40 37 33 29 26 26 25 25 26 30 33 36 40
39 37 36 36 34 33 32 31 30 29 28 27 26 26 26 26 24 23 22 22 23 23 22 22 22 23 24 24 20 15 11 9 9 10 13 18 22 25 26 25 24 22 21 21 22 22 23 24 25 26 27 28 30 32 33 34 34 34 35 38 41 42 39 34 30 27 25 24 22 22 25 28 30 31
36 34 34 34 33 32 32 31 30 29 28 27 26 26 26 25 24 23 22 22 22 22 21 20 20 21 21 20 15 10 6 5 6 9 14 19 22 24 23 22 21 20 20 20 20 20 21 22 23 24 25 26 27 29 30 30 31 32 32 34 38 42 41 36 31 29 26 24 22 20 21 24 26 26
33 33 33 33 32 31 31 30 29 28 27 26 26 25 25 24 23 22 22 22 21 21 20 19 19 19 18 15 10 5 4 6 9 12 16 19 21 21 20 20 19 18 18 18 18 18 19 20 20 21 21 22 23 24 26 27 27 29 31 32 36 41 41 37 33 31 27 24 23 21 19 20 21 22
32 32 32 31 30 30 30 29 29 28 27 26 25 25 24 24 23 22 21 21 20 19 18 18 17 17 15 11 6 4 7 10 13 16 18 19 19 19 19 18 17 17 16 16 16 16 16 16 17 17 17 18 19 20 22 23 24 27 29 31 34 39 41 39 35 32 28 26 25 24 21 19 19 19
32 31 30 29 29 29 28 29 28 28 26 25 24 24 24 23 22 22 21 20 19 18 17 16 16 15 13 9 6 8 11 14 16 17 18 19 19 18 17 16 15 15 15 15 14 14 14 14 14 15 15 15 16 17 19 20 22 24 27 30 33 38 41 39 36 33 30 28 27 27 25 22 21 20
31 30 29 28 28 28 28 28 28 27 26 25 24 23 23 23 22 21 20 19 18 17 16 15 15 15 12 9 8 11 14 16 18 19 19 19 18 17 16 15 15 14 14 14 13 13 13 13 13 13 13 13 14 15 16 17 19 21 24 28 31 36 41 41 38 35 33 31 29 28 28 27 25 24
30 29 28 28 27 27 27 27 27 27 26 25 24 23 23 22 22 21 20 19 18 17 16 14 14 14 13 10 10 13 16 17 18 19 19 19 18 17 16 15 15 15 14 13 13 12 12 12 11 11 11 12 13 14 14 14 15 17 21 25 30 35 41 42 40 37 35 33 32 30 29 28 28 27
Wind_Direction
282 282 283 281 279 278 273 262 249 239 234 232 231 231 230 229 227 227 227 228 229 229 229 229 229 229 228 228 227 227 227 227 228 229 228 226 227 227 227 225 223 222 222 222 222 223 223 223 224 224 224 223 224 225 224 222 224 227 226 227 230 232 232 233 234 235 236 236 236 237 237 238 238 238
286 284 284 284 282 281 279 274 261 248 239 233 231 230 230 229 228 227 227 227 229 229 229 229 229 229 229 229 228 227 227 227 227 228 228 226 226 226 227 226 224 223 222 222 222 223 223 223 223 223 224 223 223 224 224 222 221 223 224 223 224 229 232 232 232 232 234 236 236 236 237 237 237 238
289 288 287 287 285 284 284 283 275 260 246 238 233 231 230 229 229 228 228 227 228 229 230 229 229 229 229 229 228 228 227 227 226 227 227 227 226 226 226 227 226 224 224 223 223 223 223 223 223 223 223 223 224 224 224 223 221 221 222 221 221 224 229 231 231 231 232 234 235 235 236 236 237 237
291 290 289 289 289 288 287 288 286 275 258 244 237 232 230 229 229 228 228 227 227 228 230 230 230 229 228 228 228 227 227 227 226 226 226 227 226 226 226 227 227 226 226 225 225 224 224 224 224 223 223 224 224 224 224 223 222 221 220 221 221 222 226 229 231 232 231 230 231 233 235 235 236 236
293 291 291 291 292 294 292 289 289 285 272 255 243 236 232 230 229 229 228 228 227 228 229 230 230 230 229 228 228 228 227 227 227 226 226 226 226 226 226 226 227 227 227 227 226 225 225 225 224 224 224 224 224 224 224 224 223 222 220 219 220 222 224 226 227 230 231 230 231 233 234 234 234 234
295 293 293 293 295 297 295 291 288 287 284 270 253 242 235 232 230 229 229 228 227 227 228 229 230 230 230 229 228 228 227 227 227 226 226 226 226 226 226 226 227 227 227 227 227 226 226 225 225 225 224 224 224 224 224 224 224 223 222 220 219 221 224 225 224 226 228 228 229 231 232 233 232 231
298 295 295 296 299 300 297 294 290 289 289 285 270 253 242 235 232 230 229 228 227 227 227 228 229 230 230 230 229 228 228 227 227 227 226 226 226 226 226 226 226 227 227 227 227 227 226 226 226 225 225 224 224 224 224 224 224 224 224 223 221 221 223 224 223 223 226 227 227 228 229 229 230 229
300 298 298 300 301 302 301 300 297 292 290 289 284 270 254 242 235 232 230 229 228 227 226 227 228 229 230 230 230 230 229 228 228 227 227 227 226 226 226 226 226 226 227 227 227 227 227 227 226 226 225 225 225 224 224 224 224 224 224 224 224 222 222 223 222 221 223 226 227 227 227 227 228 228
302 300 301 303 305 305 305 306 304 298 292 288 287 281 268 253 243 236 232 230 228 228 227 226 227 228 229 230 231 231 230 229 229 228 228 227 227 227 226 226 226 226 226 226 227 227 227 227 227 226 226 225 225 225 224 224 224 224 224 224 225 224 223 223 223 221 221 222 224 225 227 227 227 226
303 301 302 305 307 309 309 310 310 306 297 291 287 285 281 268 253 243 237 232 230 228 227 226 226 227 228 229 231 231 231 231 230 229 229 228 228 228 227 227 226 226 226 226 226 227 227 227 227 227 227 226 226 226 225 225 224 224 224 224 225 225 224 224 224 224 222 221 221 223 224 226 227 226
303 302 303 304 307 311 314 313 313 311 304 297 291 288 287 284 271 255 244 236 232 229 227 227 227 226 226 228 229 231 232 232 231 231 230 229 229 229 228 228 227 227 226 226 226 226 227 227 227 227 227 227 226 226 226 226 225 225 225 225 225 225 225 225 225 225 225 223 222 222 222 223 225 225
307 304 303 304 307 310 315 316 314 313 311 305 299 295 294 293 288 274 256 243 236 231 228 227 227 227 226 226 227 229 231 232 232 232 231 230 230 229 229 229 229 228 227 227 226 227 227 227 227 227 227 227 227 227 226 226 226 226 225 225 225 225 225 225 225 225 226 225 224 224 224 223 223 224
314 310 306 305 307 309 312 315 315 315 315 313 309 304 300 296 293 288 275 257 243 235 231 228 227 227 227 227 227 228 230 231 232 232 232 232 231 231 230 229 230 230 229 228 227 227 227 227 227 227 228 228 228 228 227 227 227 227 227 226 226 226 226 226 226 226 226 226 226 225 224 225 225 225
321 320 315 311 311 313 313 314 315 316 317 319 319 313 304 299 297 293 288 275 256 242 235 230 227 226 227 227 227 227 228 229 231 233 233 233 233 232 231 230 230 231 231 230 229 228 228 227 227 227 228 228 228 228 228 228 228 227 227 227 227 227 226 226 226 227 226 226 227 226 225 225 226 227
319 323 324 320 318 320 323 323 324 323 322 322 322 320 314 309 307 303 297 291 276 256 242 234 230 227 226 227 227 227 228 228 230 232 233 233 234 234 233 232 231 231 231 232 231 230 230 229 228 228 228 228 229 229 229 229 229 229 228 228 228 228 227 227 227 227 227 227 227 227 227 226 227 228
311 315 318 319 318 319 322 325 326 325 325 324 323 321 321 321 320 317 313 308 296 279 258 243 235 230 228 227 227 228 228 228 229 230 232 233 234 235 235 234 234 233 232 232 232 232 232 231 230 229 229 229 229 230 230 230 230 230 230 229 229 229 228 228 228 227 227 227 227 227 228 228 228 228
300 304 306 307 307 308 310 312 313 315 316 316 316 317 318 320 323 320 319 318 314 303 284 261 245 236 232 229 228 227 228 229 229 230 231 232 233 235 235 235 235 236 235 234 233 232 233 233 232 230 230 230 230 230 230 230 231 231 231 231 230 230 229 229 229 229 228 228 228 228 228 228 228 229
291 294 297 299 300 301 301 302 304 306 307 305 302 304 306 307 310 313 317 320 320 316 309 293 268 251 241 235 232 229 228 229 229 230 230 231 232 233 235 235 236 237 238 237 235 234 233 234 234 232 232 232 231 231 231 231 232 231 231 231 231 231 231 230 230 230 230 229 229 228 228 228 228 229
285 286 289 292 294 295 296 298 299 300 300 299 294 292 292 293 295 300 307 311 309 306 312 319 309 280 256 243 238 234 231 230 229 229 230 231 232 232 234 235 236 237 239 239 238 236 235 234 234 234 233 233 233 232 232 232 232 233 232 232 232 232 232 232 232 231 231 231 230 230 230 229 229 229
281 282 284 287 290 292 294 296 298 299 297 295 291 288 285 284 285 288 292 294 294 294 298 306 316 313 285 252 241 237 234 233 231 230 230 231 232 232 233 234 235 237 238 239 239 239 237 236 236 235 234 235 234 234 233 233 233 233 233 233 233 233 233 233 233 233 232 232 232 231 231 231 230 230
279 280 282 285 289 292 295 297 299 300 298 295 291 286 283 281 281 281 283 283 284 285 287 290 291 291 287 268 244 239 237 235 234 233 232 231 231 231 232 233 234 235 237 238 239 239 239 239 238 237 236 236 235 235 235 235 235 234 234 234 234 234 234 234 234 234 234 233 233 233 233 233 232 232
279 280 280 284 288 292 296 299 301 302 300 297 294 288 283 281 281 281 280 277 275 274 276 278 280 278 273 267 258 250 246 241 237 234 233 233 232 232 232 232 233 234 236 237 238 239 239 240 240 240 239 238 237 236 236 236 236 236 235 235 235 235 235 235 235 235 235 235 234 234 234 234 234 234
278 279 279 281 286 291 294 298 301 303 301 298 295 290 285 283 286 286 279 273 269 266 267 270 274 275 273 269 264 256 253 252 245 239 237 235 234 233 232 232 233 233 235 236 238 238 238 239 240 240 240 240 239 238 238 237 237 237 236 236 236 236 236 236 236 236 236 236 236 235 235 235 235 235
279 279 279 281 285 290 292 295 298 301 301 299 295 290 286 287 292 288 276 274 272 269 267 267 269 272 273 271 268 262 256 252 249 246 245 241 236 234 233 233 233 234 235 236 236 237 237 238 239 239 240 240 240 240 240 239 239 238 237 237 237 237 237 237 237 236 237 237 237 237 237 236 236 236
284 280 279 280 282 287 290 293 296 298 299 298 295 291 288 289 292 287 277 277 277 273 271 270 269 271 272 272 270 266 262 257 252 248 248 247 242 237 236 235 234 234 235 235 236 236 236 237 238 239 239 239 240 240 241 241 241 240 239 239 238 238 238 238 238 237 237 237 237 237 238 238 238 238
289 285 281 279 278 281 285 289 293 295 297 297 295 293 292 290 289 286 281 278 277 274 273 274 273 272 272 272 270 267 264 261 257 252 249 248 246 242 240 238 235 235 235 236 236 236 236 236 237 238 239 239 239 240 240 241 241 241 241 241 240 240 239 239 239 238 238 238 238 238 238 238 238 239
287 288 288 286 283 282 282 284 286 290 294 296 294 292 292 292 290 287 282 277 275 274 274 275 274 273 272 271 269 267 264 262 260 256 251 249 248 246 244 242 239 237 237 237 237 236 236 236 237 238 238 239 239 239 240 241 241 242 242 242 242 241 241 241 240 239 239 239 238 238 238 238 238 239
280 284 287 289 289 288 286 285 284 285 288 292 292 291 290 291 291 289 286 281 276 274 273 272 271 271 271 270 269 267 265 263 262 261 257 254 252 250 248 245 242 242 242 241 239 238 236 236 236 237 238 238 238 239 240 240 241 242 242 242 242 243 242 242 242 241 241 240 239 239 239 239 239 239
276 279 280 283 285 286 285 284 282 282 282 284 287 288 288 288 289 288 288 285 281 279 276 273 272 271 271 270 268 267 267 266 265 265 262 259 254 251 248 246 244 243 244 244 243 240 237 235 235 236 237 237 237 238 239 240 241 241 242 242 243 243 243 243 243 243 242 242 241 240 239 239 239 239
271 275 277 279 281 281 280 279 277 277 278 278 280 283 285 286 288 287 287 285 283 282 281 279 278 276 274 272 270 269 270 270 268 266 263 260 256 251 247 244 243 242 242 243 244 243 240 236 235 235 235 236 236 236 237 238 239 241 241 242 243 243 243 244 244 244 244 244 243 242 241 240 240 240
264 270 274 276 279 280 279 278 275 273 273 273 275 278 281 285 287 288 287 286 284 282 282 282 282 281 279 277 275 274 274 272 268 265 262 260 257 252 246 242 240 241 241 242 243 243 242 239 238 237 236 235 235 235 235 236 237 239 240 241 242 243 244 244 244 244 245 245 244 244 243 242 242 241
257 262 267 271 274 276 278 278 277 274 271 270 271 273 277 282 286 288 289 288 285 284 283 283 283 283 282 281 279 277 277 275 271 265 260 257 255 251 245 240 238 238 239 240 240 241 242 241 240 240 240 238 236 234 234 234 235 236 238 240 241 242 243 244 245 245 245 245 245 245 245 244 243 243
253 256 259 264 268 271 273 275 276 275 272 270 269 270 274 278 282 286 289 290 288 286 285 285 285 285 285 284 282 281 281 279 273 265 259 253 250 247 243 238 236 235 236 237 237 238 240 240 239 239 240 240 238 236 234 233 233 234 236 237 239 241 242 244 245 246 246 246 246 246 245 245 245 244
251 253 255 258 262 266 269 271 272 273 272 270 268 269 271 275 278 283 289 291 290 288 287 288 289 289 288 287 287 288 287 282 273 265 258 250 245 242 237 234 233 233 233 234 235 237 238 240 239 239 240 240 238 237 235 233 232 233 234 235 236 238 241 243 245 246 247 247 248 247 247 246 245 245
249 250 252 255 257 261 264 267 269 271 271 269 267 266 267 271 275 282 288 292 291 290 289 290 291 291 291 290 292 294 293 285 273 264 256 248 242 236 230 228 229 230 231 233 234 236 237 238 239 240 242 241 240 238 237 235 233 232 233 234 235 236 239 241 243 246 247 248 249 248 248 247 247 246
247 248 250 252 255 257 261 264 266 268 270 269 266 264 263 266 271 278 287 292 294 293 291 291 292 292 292 295 299 301 297 286 273 262 251 244 237 228 221 221 224 227 229 232 234 236 237 238 240 242 244 244 243 240 238 238 236 234 234 234 234 234 235 236 240 243 245 247 249 249 248 248 247 246
247 247 248 250 252 255 258 261 263 266 268 267 265 262 261 263 267 274 283 291 295 295 293 292 293 293 295 300 305 305 297 286 273 259 245 234 225 216 212 214 219 224 227 231 234 236 238 239 242 245 246 246 246 244 242 242 242 240 238 236 233 231 229 230 234 239 240 241 245 247 247 245 244 243
246 246 246 248 250 252 255 258 260 263 265 266 264 262 260 260 264 270 278 287 293 295 294 292 293 295 299 306 310 307 297 284 271 254 236 221 209 204 204 209 215 220 225 230 233 235 237 239 241 244 246 247 247 246 245 246 245 244 242 238 232 228 225 225 229 235 237 236 240 244 243 241 240 239
245 244 245 247 248 249 252 255 257 260 263 263 263 261 259 259 262 267 274 282 290 294 294 292 292 296 303 310 313 306 292 278 261 239 218 203 196 195 199 205 212 218 224 230 234 235 236 237 239 241 243 245 246 245 246 247 246 245 244 239 232 226 223 222 224 230 235 237 239 242 241 237 235 235
244 244 244 245 247 247 249 251 254 256 260 262 262 261 260 259 262 265 271 278 286 292 292 290 291 297 305 312 313 303 279 250 221 204 194 188 188 192 197 203 211 218 225 231 233 234 234 236 238 240 242 244 245 245 246 247 245 243 242 239 232 225 221 219 221 227 234 237 238 240 240 235 231 231
243 242 242 243 245 245 246 248 250 253 256 259 260 260 260 260 261 263 267 274 282 288 291 288 288 295 305 311 308 286 225 186 178 179 180 183 187 192 198 205 213 220 226 230 231 231 233 236 239 242 243 244 245 246 246 245 244 240 238 236 231 224 219 216 219 225 231 234 235 237 237 232 228 225
241 239 240 241 242 243 244 245 247 249 252 255 257 258 258 258 259 261 263 268 276 284 287 284 284 291 300 304 287 219 176 167 169 173 177 182 188 194 200 209 217 223 226 227 227 228 232 236 240 243 245 246 246 246 245 244 242 239 236 234 229 222 215 213 217 224 229 231 231 233 235 233 229 225
240 238 238 239 240 241 242 243 245 246 248 251 254 254 255 255 257 258 260 263 271 278 281 279 278 284 291 287 245 197 176 170 173 177 181 186 192 198 204 212 218 220 220 219 220 223 228 234 239 242 244 245 246 247 246 244 242 238 235 232 227 219 212 211 215 222 228 230 229 229 232 235 234 231
239 237 235 236 237 239 241 242 243 244 246 248 251 252 252 253 254 255 256 260 266 272 274 271 270 274 278 268 229 201 188 182 182 186 190 193 197 201 207 211 213 213 212 211 213 216 221 226 232 237 241 243 245 248 248 247 244 238 233 230 224 216 211 211 215 220 224 227 229 229 229 231 233 232
238 235 233 233 235 237 239 240 241 242 243 246 247 248 249 250 251 253 254 256 261 266 266 263 262 264 267 258 230 210 202 197 195 196 199 201 203 206 209 210 209 208 207 207 208 211 215 221 226 233 239 243 246 248 249 249 246 239 230 224 219 212 210 212 217 220 222 224 228 231 231 230 230 229
Height
5341 5339 5338 5337 5336 5334 5332 5331 5331 5333 5336 5341 5346 5353 5360 5367 5375 5383 5389 5395 5401 5405 5410 5417 5423 5429 5436 5444 5451 5458 5465 5472 5478 5485 5491 5496 5501 5505 5511 5517 5523 5528 5533 5539 5545 5550 5555 5560 5566 5571 5577 5583 5588 5593 5599 5604 5608 5612 5618 5623 5627 5630 5633 5638 5644 5648 5652 5656 5660 5664 5667 5672 5676 5681
5335 5334 5333 5331 5330 5328 5326 5325 5324 5324 5326 5329 5334 5339 5346 5353 5362 5370 5377 5384 5390 5392 5398 5406 5411 5417 5426 5433 5440 5447 5454 5461 5467 5473 5480 5486 5491 5496 5502 5508 5515 5520 5525 5531 5537 5542 5547 5552 5557 5563 5568 5574 5579 5584 5590 5595 5600 5605 5610 5616 5622 5624 5627 5631 5636 5641 5644 5648 5652 5655 5659 5664 5668 5673
5330 5329 5327 5326 5324 5322 5321 5319 5318 5317 5317 5319 5323 5327 5333 5339 5348 5356 5363 5372 5380 5382 5386 5393 5399 5406 5415 5422 5429 5436 5442 5449 5455 5461 5468 5475 5481 5487 5493 5500 5506 5512 5517 5523 5528 5534 5538 5543 5549 5554 5560 5566 5571 5576 5581 5586 5592 5597 5602 5608 5613 5618 5622 5625 5628 5633 5638 5641 5644 5647 5651 5656 5661 5665
5326 5324 5322 5321 5319 5317 5316 5314 5312 5311 5310 5311 5313 5316 5321 5326 5333 5341 5348 5360 5370 5371 5374 5381 5388 5396 5403 5410 5417 5424 5430 5437 5443 5450 5457 5464 5472 5478 5485 5491 5497 5503 5509 5514 5519 5524 5529 5535 5540 5546 5551 5557 5562 5568 5573 5578 5584 5589 5594 5599 5605 5611 5616 5619 5623 5627 5631 5635 5637 5639 5644 5649 5654 5657
5322 5320 5318 5316 5314 5313 5311 5310 5308 5306 5304 5304 5305 5307 5311 5315 5320 5326 5333 5345 5356 5360 5364 5372 5378 5385 5391 5398 5406 5412 5419 5425 5432 5439 5446 5454 5461 5468 5475 5482 5487 5493 5499 5504 5510 5515 5520 5526 5531 5537 5542 5548 5554 5559 5565 5570 5575 5580 5586 5591 5598 5603 5608 5613 5616 5619 5623 5628 5631 5633 5636 5641 5646 5649
5318 5316 5314 5312 5310 5309 5307 5305 5303 5302 5300 5299 5299 5300 5302 5305 5309 5314 5321 5330 5340 5348 5355 5362 5368 5374 5379 5387 5395 5400 5407 5414 5420 5427 5436 5443 5451 5458 5465 5472 5478 5484 5489 5494 5499 5505 5511 5517 5522 5528 5534 5539 5544 5550 5555 5561 5566 5572 5578 5584 5589 5594 5599 5604 5608 5611 5615 5620 5623 5627 5630 5634 5638 5642
5314 5313 5311 5309 5307 5305 5304 5302 5300 5298 5297 5295 5294 5294 5294 5297 5300 5304 5310 5317 5326 5335 5344 5350 5357 5363 5368 5375 5383 5388 5396 5403 5410 5418 5426 5433 5440 5448 5455 5462 5468 5473 5478 5484 5489 5495 5501 5507 5513 5519 5524 5530 5535 5540 5546 5552 5557 5563 5569 5574 5580 5584 5589 5594 5598 5603 5608 5612 5616 5621 5625 5628 5631 5634
5311 5309 5308 5306 5304 5302 5300 5299 5297 5295 5293 5292 5290 5289 5289 5290 5292 5295 5299 5306 5313 5322 5331 5339 5346 5352 5357 5364 5371 5377 5385 5393 5401 5409 5416 5422 5429 5437 5444 5450 5457 5463 5468 5473 5479 5485 5491 5497 5503 5509 5515 5520 5526 5531 5537 5542 5548 5554 5559 5565 5570 5575 5580 5584 5589 5594 5599 5604 5609 5614 5618 5622 5624 5627
5308 5306 5305 5303 5301 5300 5298 5296 5294 5292 5291 5289 5288 5286 5285 5285 5286 5288 5291 5296 5302 5310 5318 5326 5333 5340 5346 5354 5361 5367 5375 5383 5390 5398 5404 5411 5419 5426 5432 5439 5445 5451 5456 5462 5469 5475 5482 5488 5493 5499 5505 5511 5516 5522 5527 5533 5538 5544 5550 5555 5560 5566 5571 5575 5580 5585 5590 5595 5601 5606 5611 5614 5618 5621
5305 5303 5302 5300 5299 5297 5295 5293 5292 5290 5288 5287 5285 5284 5282 5281 5281 5282 5284 5287 5293 5299 5307 5314 5321 5328 5337 5344 5351 5358 5364 5370 5378 5386 5394 5402 5408 5414 5419 5426 5433 5439 5446 5453 5459 5465 5472 5478 5483 5489 5494 5500 5506 5512 5518 5523 5529 5535 5540 5546 5551 5556 5561 5566 5571 5576 5581 5586 5591 5597 5602 5606 5610 5614
5303 5301 5299 5298 5296 5294 5293 5291 5289 5288 5286 5284 5283 5281 5280 5279 5278 5278 5279 5281 5285 5290 5297 5304 5310 5317 5325 5332 5340 5346 5351 5357 5367 5376 5383 5389 5395 5400 5407 5415 5422 5429 5436 5443 5449 5455 5461 5467 5472 5478 5483 5490 5496 5502 5508 5514 5520 5526 5531 5536 5541 5546 5551 5556 5561 5566 5571 5577 5582 5587 5592 5597 5601 5605
5300 5299 5297 5295 5294 5292 5290 5289 5287 5286 5284 5282 5281 5279 5278 5277 5276 5275 5275 5276 5279 5282 5287 5294 5300 5306 5313 5321 5329 5334 5339 5348 5358 5363 5367 5374 5382 5389 5398 5406 5412 5418 5426 5433 5439 5444 5450 5456 5461 5467 5473 5479 5486 5493 5499 5505 5511 5516 5521 5526 5531 5536 5540 5546 5551 5556 5561 5567 5572 5578 5583 5588 5592 5596
5298 5297 5295 5293 5292 5290 5288 5287 5285 5284 5283 5281 5279 5278 5277 5275 5274 5273 5273 5273 5274 5276 5280 5285 5290 5296 5303 5310 5317 5323 5330 5338 5345 5347 5352 5364 5374 5380 5387 5395 5402 5408 5415 5422 5428 5434 5439 5444 5449 5455 5463 5470 5477 5483 5489 5496 5502 5507 5511 5516 5520 5525 5530 5536 5541 5547 5552 5557 5563 5568 5574 5578 5583 5587
5296 5295 5293 5291 5290 5288 5287 5285 5284 5282 5281 5279 5278 5276 5275 5274 5273 5272 5271 5270 5270 5272 5274 5277 5281 5287 5293 5298 5305 5313 5319 5326 5332 5336 5345 5356 5363 5367 5376 5386 5394 5399 5405 5411 5417 5422 5427 5431 5438 5446 5454 5462 5468 5473 5480 5486 5492 5497 5500 5504 5509 5515 5521 5526 5531 5537 5542 5547 5553 5558 5564 5569 5573 5578
5295 5293 5292 5290 5288 5287 5285 5284 5283 5281 5280 5278 5277 5275 5274 5273 5272 5270 5269 5269 5268 5268 5269 5271 5275 5280 5284 5288 5294 5303 5309 5315 5322 5328 5336 5345 5352 5357 5367 5377 5384 5389 5394 5398 5403 5409 5414 5421 5430 5438 5445 5452 5458 5463 5471 5476 5480 5485 5489 5493 5499 5505 5510 5516 5521 5527 5532 5538 5543 5548 5554 5559 5564 5568
5293 5291 5290 5289 5287 5286 5284 5283 5282 5280 5279 5277 5276 5274 5273 5272 5271 5270 5269 5268 5267 5266 5266 5267 5270 5273 5276 5279 5286 5294 5298 5304 5312 5319 5326 5336 5344 5349 5357 5366 5373 5376 5379 5384 5391 5398 5405 5412 5421 5429 5437 5443 5448 5453 5460 5465 5468 5473 5477 5482 5488 5494 5499 5505 5510 5516 5522 5527 5532 5538 5543 5548 5553 5558
5291 5289 5288 5287 5286 5285 5283 5282 5281 5279 5278 5277 5275 5274 5272 5271 5270 5269 5268 5267 5266 5265 5265 5265 5266 5268 5270 5273 5279 5284 5289 5296 5304 5311 5319 5327 5333 5338 5345 5354 5360 5361 5364 5372 5382 5390 5397 5401 5409 5420 5428 5433 5438 5443 5449 5453 5456 5461 5466 5471 5477 5483 5488 5494 5499 5504 5510 5515 5521 5527 5532 5537 5543 5548
5288 5287 5286 5285 5284 5283 5282 5280 5279 5278 5276 5275 5274 5273 5271 5270 5269 5268 5267 5267 5266 5265 5264 5264 5264 5265 5266 5269 5273 5277 5283 5289 5295 5301 5309 5315 5320 5326 5333 5340 5347 5350 5354 5362 5370 5379 5387 5391 5398 5409 5418 5422 5426 5432 5436 5440 5443 5449 5454 5460 5466 5471 5476 5482 5487 5492 5498 5504 5510 5516 5521 5526 5532 5537
5285 5284 5283 5282 5281 5280 5279 5278 5277 5275 5274 5273 5272 5271 5270 5269 5268 5268 5267 5266 5265 5264 5264 5263 5264 5264 5264 5266 5269 5272 5277 5281 5286 5291 5297 5303 5309 5315 5322 5330 5338 5342 5344 5349 5354 5364 5375 5381 5387 5399 5407 5408 5411 5418 5424 5427 5432 5437 5444 5449 5454 5459 5463 5469 5475 5481 5487 5493 5498 5504 5509 5515 5520 5525
5282 5281 5280 5279 5278 5277 5276 5275 5274 5273 5272 5271 5270 5269 5268 5267 5267 5266 5266 5265 5265 5264 5263 5263 5263 5263 5263 5264 5265 5267 5270 5274 5278 5283 5289 5294 5299 5306 5313 5322 5329 5331 5331 5334 5340 5350 5363 5370 5376 5387 5393 5392 5397 5406 5411 5415 5420 5426 5431 5436 5440 5446 5452 5457 5463 5469 5475 5481 5486 5492 5498 5503 5508 5514
5278 5278 5277 5276 5275 5274 5273 5272 5271 5270 5270 5269 5268 5267 5266 5265 5265 5265 5265 5264 5264 5263 5262 5262 5263 5263 5263 5263 5264 5265 5266 5268 5272 5276 5281 5285 5289 5295 5303 5311 5316 5317 5317 5320 5327 5339 5352 5358 5363 5372 5378 5380 5386 5394 5398 5403 5407 5411 5417 5423 5428 5434 5440 5445 5451 5456 5462 5468 5474 5480 5486 5492 5497 5502
5275 5274 5273 5273 5272 5271 5270 5269 5268 5268 5267 5266 5266 5265 5264 5263 5263 5263 5263 5263 5262 5262 5262 5261 5261 5262 5262 5262 5263 5264 5265 5266 5268 5271 5274 5276 5280 5287 5294 5299 5302 5303 5305 5309 5316 5328 5340 5345 5348 5355 5362 5367 5375 5382 5385 5389 5394 5398 5404 5410 5415 5421 5427 5432 5438 5443 5449 5455 5461 5468 5474 5480 5485 5489
5271 5271 5270 5269 5269 5268 5268 5267 5266 5265 5265 5264 5264 5263 5261 5261 5261 5261 5261 5260 5260 5261 5260 5260 5260 5260 5261 5261 5262 5263 5264 5264 5266 5267 5268 5270 5274 5279 5283 5286 5289 5292 5296 5300 5306 5316 5326 5330 5332 5338 5345 5352 5361 5368 5371 5376 5381 5386 5391 5397 5402 5408 5413 5419 5424 5430 5436 5442 5449 5455 5462 5468 5473 5476
5268 5268 5267 5266 5266 5265 5265 5264 5264 5263 5262 5262 5261 5261 5259 5258 5259 5259 5259 5258 5258 5258 5258 5258 5258 5258 5258 5259 5260 5261 5262 5263 5264 5265 5265 5267 5269 5271 5273 5276 5280 5283 5287 5289 5294 5301 5310 5313 5315 5322 5330 5337 5346 5352 5356 5362 5367 5373 5378 5383 5389 5394 5399 5404 5410 5416 5422 5429 5436 5443 5449 5455 5460 5464
5265 5264 5264 5263 5263 5262 5262 5261 5261 5261 5260 5260 5259 5259 5258 5257 5257 5257 5257 5256 5256 5256 5256 5256 5256 5256 5256 5257 5258 5259 5259 5260 5261 5262 5263 5264 5265 5267 5268 5269 5272 5275 5277 5278 5282 5288 5294 5299 5303 5308 5315 5324 5332 5337 5341 5347 5353 5358 5364 5370 5376 5380 5384 5390 5396 5403 5410 5416 5423 5429 5436 5442 5447 5451
5262 5261 5261 5260 5260 5259 5259 5259 5258 5258 5258 5258 5257 5256 5256 5255 5255 5255 5255 5254 5254 5254 5254 5254 5254 5254 5254 5254 5255 5256 5256 5257 5257 5258 5259 5260 5261 5262 5263 5265 5267 5268 5268 5269 5272 5277 5283 5289 5293 5296 5302 5310 5318 5323 5327 5332 5337 5342 5348 5355 5361 5366 5370 5376 5383 5390 5396 5402 5408 5415 5421 5427 5432 5436
5259 5258 5257 5257 5256 5256 5256 5256 5256 5255 5255 5256 5255 5255 5254 5253 5253 5252 5252 5252 5252 5252 5252 5251 5251 5251 5251 5251 5252 5252 5253 5253 5253 5254 5255 5256 5257 5258 5260 5261 5262 5262 5262 5263 5266 5270 5275 5280 5283 5286 5290 5296 5303 5309 5313 5317 5321 5326 5332 5339 5345 5350 5356 5362 5369 5375 5381 5387 5393 5399 5405 5410 5416 5421
5255 5255 5254 5254 5253 5253 5252 5252 5252 5252 5252 5253 5253 5253 5252 5251 5250 5250 5250 5249 5249 5249 5249 5249 5249 5248 5248 5248 5248 5248 5248 5248 5248 5249 5250 5252 5253 5254 5256 5257 5258 5258 5258 5259 5261 5264 5268 5271 5274 5276 5280 5285 5291 5296 5300 5303 5306 5311 5316 5323 5329 5334 5340 5346 5353 5359 5365 5371 5378 5384 5390 5396 5403 5408
5251 5251 5251 5251 5250 5250 5249 5249 5249 5249 5249 5250 5250 5250 5250 5249 5248 5248 5247 5247 5246 5246 5246 5246 5246 5245 5245 5244 5244 5243 5243 5243 5244 5245 5246 5247 5248 5250 5251 5252 5254 5254 5254 5255 5257 5259 5261 5264 5266 5268 5271 5275 5280 5284 5287 5290 5293 5297 5302 5307 5313 5318 5324 5330 5336 5342 5349 5355 5361 5369 5375 5382 5389 5395
5247 5247 5247 5247 5247 5247 5247 5246 5246 5246 5246 5246 5246 5247 5247 5247 5246 5245 5245 5244 5244 5243 5243 5242 5242 5242 5241 5240 5240 5239 5238 5239 5240 5240 5241 5241 5243 5244 5246 5247 5248 5250 5250 5251 5253 5254 5256 5258 5260 5262 5264 5268 5271 5275 5278 5280 5284 5287 5290 5294 5299 5303 5308 5315 5320 5326 5332 5338 5345 5352 5360 5368 5376 5382
5243 5242 5242 5243 5243 5243 5243 5243 5243 5243 5243 5243 5243 5243 5243 5243 5243 5242 5242 5241 5241 5240 5239 5239 5238 5238 5237 5236 5235 5234 5234 5234 5235 5235 5235 5236 5237 5238 5240 5242 5244 5245 5246 5248 5249 5251 5252 5254 5255 5257 5259 5262 5264 5267 5270 5273 5276 5279 5281 5284 5288 5291 5295 5300 5305 5310 5315 5321 5328 5336 5345 5353 5361 5367
5239 5239 5238 5239 5239 5239 5239 5240 5240 5240 5240 5240 5240 5240 5240 5239 5239 5239 5238 5238 5237 5237 5236 5235 5235 5234 5233 5232 5231 5230 5229 5229 5229 5228 5228 5230 5231 5232 5234 5237 5239 5240 5242 5243 5245 5247 5248 5250 5251 5253 5255 5257 5259 5261 5264 5267 5270 5272 5273 5276 5280 5283 5285 5289 5293 5297 5301 5306 5313 5320 5328 5337 5345 5351
5234 5234 5234 5235 5235 5235 5235 5236 5236 5236 5236 5236 5236 5236 5236 5236 5236 5235 5235 5234 5234 5233 5232 5231 5231 5230 5228 5227 5226 5225 5224 5223 5222 5221 5221 5223 5224 5226 5229 5232 5234 5236 5237 5239 5241 5242 5244 5246 5247 5249 5250 5252 5255 5257 5259 5262 5264 5266 5268 5271 5273 5276 5278 5281 5284 5287 5290 5294 5299 5305 5313 5320 5328 5334
5229 5229 5230 5230 5231 5231 5232 5232 5232 5232 5232 5232 5232 5232 5232 5232 5232 5232 5231 5231 5230 5229 5228 5227 5226 5225 5224 5222 5221 5219 5218 5216 5214 5213 5214 5215 5217 5220 5224 5227 5229 5231 5233 5235 5237 5238 5240 5242 5243 5245 5246 5248 5251 5253 5255 5258 5260 5262 5263 5266 5268 5271 5273 5275 5277 5280 5282 5285 5289 5293 5299 5305 5312 5318
5223 5224 5225 5226 5226 5227 5227 5228 5228 5228 5228 5228 5228 5228 5228 5228 5228 5228 5228 5227 5226 5225 5224 5223 5222 5221 5219 5217 5215 5213 5211 5209 5207 5206 5207 5209 5211 5214 5218 5222 5225 5227 5229 5231 5233 5234 5236 5238 5240 5241 5243 5245 5247 5249 5251 5254 5256 5257 5259 5261 5264 5266 5268 5270 5272 5274 5277 5279 5281 5285 5289 5294 5299 5304
5217 5218 5219 5220 5221 5222 5223 5223 5224 5224 5224 5224 5224 5224 5225 5225 5225 5224 5224 5223 5222 5221 5220 5219 5218 5217 5215 5212 5210 5206 5204 5202 5201 5201 5202 5203 5206 5209 5214 5218 5221 5223 5226 5228 5229 5231 5232 5234 5236 5237 5239 5241 5244 5246 5248 5249 5251 5253 5255 5257 5260 5262 5264 5266 5268 5270 5272 5274 5275 5278 5281 5284 5288 5292
5210 5212 5214 5215 5216 5217 5218 5219 5219 5219 5219 5219 5219 5220 5220 5221 5221 5221 5220 5220 5219 5218 5217 5216 5214 5213 5210 5208 5205 5201 5199 5197 5196 5196 5197 5199 5202 5206 5210 5214 5218 5220 5223 5224 5226 5227 5229 5231 5232 5234 5236 5238 5240 5242 5243 5245 5246 5248 5250 5253 5256 5258 5260 5263 5265 5267 5269 5270 5271 5272 5274 5277 5280 5283
5204 5206 5208 5209 5211 5212 5213 5214 5215 5215 5215 5215 5215 5215 5216 5216 5217 5217 5217 5216 5216 5215 5214 5213 5211 5209 5207 5204 5201 5198 5195 5194 5194 5194 5195 5197 5200 5203 5208 5212 5215 5218 5220 5221 5223 5225 5226 5228 5229 5231 5233 5234 5236 5238 5239 5240 5241 5243 5245 5248 5251 5254 5256 5259 5262 5263 5265 5267 5268 5268 5270 5271 5273 5275
5198 5200 5202 5204 5205 5207 5208 5209 5210 5210 5211 5211 5211 5211 5212 5212 5213 5213 5213 5213 5212 5212 5211 5210 5208 5206 5204 5201 5198 5195 5194 5193 5192 5193 5194 5196 5199 5203 5206 5210 5213 5215 5217 5219 5221 5222 5223 5225 5227 5228 5229 5231 5232 5233 5234 5235 5237 5239 5240 5243 5246 5249 5252 5255 5258 5260 5262 5263 5264 5265 5266 5267 5269 5271
5193 5195 5197 5198 5200 5201 5203 5204 5205 5206 5206 5206 5207 5207 5207 5208 5209 5209 5209 5209 5209 5208 5208 5207 5205 5204 5202 5199 5196 5194 5193 5192 5192 5193 5194 5197 5200 5203 5206 5209 5211 5213 5215 5217 5218 5220 5221 5222 5223 5224 5226 5227 5228 5229 5230 5231 5233 5234 5236 5238 5241 5244 5248 5252 5255 5257 5259 5260 5261 5263 5264 5265 5266 5268
5188 5190 5191 5193 5195 5196 5198 5199 5200 5201 5202 5202 5202 5203 5203 5204 5205 5205 5206 5206 5206 5205 5205 5204 5203 5201 5200 5198 5195 5194 5193 5192 5193 5194 5196 5198 5201 5203 5206 5208 5210 5212 5213 5215 5216 5217 5218 5219 5221 5222 5223 5224 5225 5225 5226 5227 5229 5230 5232 5233 5236 5239 5244 5248 5251 5254 5256 5257 5259 5260 5261 5263 5264 5266
5183 5184 5186 5188 5190 5191 5193 5194 5196 5197 5197 5198 5198 5199 5200 5200 5201 5202 5202 5202 5202 5202 5202 5201 5201 5199 5198 5197 5195 5194 5193 5193 5194 5195 5197 5199 5201 5203 5205 5207 5208 5210 5211 5213 5214 5215 5216 5217 5218 5219 5220 5221 5222 5222 5223 5224 5225 5226 5227 5229 5231 5235 5239 5244 5247 5250 5252 5254 5256 5257 5259 5260 5262 5264
5177 5179 5181 5183 5185 5186 5188 5189 5191 5192 5193 5194 5195 5195 5196 5196 5197 5198 5198 5199 5199 5199 5199 5199 5198 5198 5197 5196 5195 5194 5194 5194 5195 5196 5197 5199 5201 5202 5204 5205 5207 5208 5209 5211 5212 5213 5214 5215 5216 5217 5217 5218 5219 5219 5220 5220 5221 5222 5223 5225 5227 5231 5235 5240 5243 5246 5249 5251 5253 5255 5256 5258 5260 5261
5172 5174 5176 5178 5180 5182 5183 5185 5186 5188 5189 5190 5191 5191 5192 5193 5193 5194 5195 5195 5196 5196 5196 5196 5196 5196 5195 5195 5194 5194 5194 5194 5195 5196 5197 5199 5200 5201 5203 5204 5205 5207 5208 5209 5210 5211 5212 5213 5214 5214 5215 5216 5216 5216 5217 5217 5218 5219 5220 5221 5224 5227 5232 5236 5239 5242 5245 5247 5249 5251 5254 5255 5257 5259
5167 5169 5172 5174 5176 5177 5179 5181 5182 5183 5184 5186 5187 5188 5188 5189 5190 5190 5191 5192 5193 5193 5193 5194 5194 5194 5194 5194 5193 5193 5194 5194 5195 5195 5197 5198 5199 5200 5202 5203 5204 5205 5206 5207 5208 5209 5210 5211 5212 5212 5213 5214 5214 5214 5215 5215 5215 5216 5217 5218 5220 5224 5228 5232 5235 5238 5241 5244 5246 5248 5250 5252 5254 5256